Showing default

METEOR M2-2, 44387

Orbit data source: Space-Track

METEOR M2-2, 44387 is a Commonwealth of Independent States-origin payload satellite in SSO that was launched on Fri, 05 Jul 2019 UTC via a SOYUZ-2-1B launch vehicle from the Vostochny Cosmodrome (VOSTO). Payload-class satellites include a variety of spacecraft equipped with specific instruments for various scientific and technological missions. These include communications satellites like Starlink; space stations such as the ISS; scientific satellites like the Hubble; Earth observation satellites from companies like Planet Labs, Umbra, and HawkEye 360; GPS; miniature CubeSats for education and research; and military/defense satellites.

Loading next visibility...
Identifier
44387, 2019-038A
Orbit
SSO
Last TLE update
4 hours ago
Origin
Manufacturer
VNIIEM
Mission
Partially operational Civil Weather
Bus & Motor
RESURS-O, Unknown motor
Mass
2,879 kg wet, ~2,600 kg dry
Launch date (UTC)
2019-07-05 (6 years ago)
Launch vehicle
SOYUZ-2-1B
Launch site
Vostochny Cosmodrome (VOSTO)
Object type
Payload
Rocket body
Debris
Shape & HBR
Cyl + 2 Pan, 14 m
Radar Cross Section
26.744 m², Large (>1 m²)

Expand to show TLE details & history

TLE from 4 hours ago
0 METEOR M2-2
1 44387U 19038A   25182.90873193  .00000054  00000-0  43391-4 0  9998
2 44387  98.8751 160.8107 0000835  10.8713 349.2483 14.24213475311433
Epoch: 2025-07-01T21:48Z
TLE epoch observation values (Epoch: 2025-07-01T21:48:34.438Z)
Latitude
-0.00006°
Longitude
-86.53021°
Altitude
813.463 km
Speed
7.447 km/s
True Right ascension
10h 43m 14s
True Declination
0° 00' 00"
Sunlit
Object was in daylight at epoch
Visualization orbit readout
Latitude
35.16013°
Longitude
-92.66249°
Altitude
815.268 km
Speed
7.449 km/s
Apparent Right ascension
06h 35m 38s
Apparent Declination
0° 45' 21"
Sunlit
Object is in daylight
Visualization observer readout
Local Sidereal Time
13:01:45
Azimuth
274.781° WNW
Elevation
-4.517°
Doppler factor
1
Orbital elements
Apogee altitude
808.899 km
Perigee altitude
807.699 km
Semi-major axis
7,186.436 km
Eccentricity
0.00008
Inclination
98.8751°
RAAN
160.8107°
Arg. of periapsis
10.8713°
True anomaly
Unknown
Mean anomaly
349.2483°
Eccentric anomaly
Unknown
Mean motion
3.56265 °/min
Orbital period
101.05 mins
BSTAR
0.000043391
Loading maneuver chart data...
Loading SW <> Apogee altitude chart data...

METEOR M2-2 Visibility forecast

Observer location: undefined°, undefined°

Span
Click to sort rows by Start time (UTC) header in descending order
Start Az.
Max El. time (UTC)
Max El. Az.
Max El.
End time (UTC)
End Az.
6 mins2025-07-02 10:13:52.080Z58.735° ENE2025-07-02 10:16:52.080Z97.594° ESE16.899°2025-07-02 10:19:52.080Z133.156° SE
8 mins2025-07-02 11:52:52.080Z0.293° NNE2025-07-02 11:56:52.080Z280.618° WNW39.192°2025-07-02 12:00:52.080Z215.04° SW
7 mins2025-07-02 21:33:52.080Z116.132° SE2025-07-02 21:36:52.080Z73.358° E25.306°2025-07-02 21:40:52.080Z14.119° NNE
7 mins2025-07-02 23:13:52.080Z208.52° SW2025-07-02 23:16:52.080Z260.475° W29.956°2025-07-02 23:20:52.080Z322.869° NNW
|